This is the latest recevied weather packets stored in our database for station/object AA0PB. If no packets are shown the sender has not sent any weather packets the latest 10 day(s).
| Time | Temp. | Humidity | Pressure | Rain* | Wind** | Luminosity | Snow |
|---|---|---|---|---|---|---|---|
| 1778004532 | 14.44° C | 83% | 1017.4 hPa | 0 mm | - | 165 W/m² | - |
| 1778004228 | 13.89° C | 84% | 1017.4 hPa | 0 mm | - | 171 W/m² | - |
| 1778003925 | 13.89° C | 85% | 1017.4 hPa | 0 mm | - | 160 W/m² | - |
| 1778003621 | 14.44° C | 84% | 1017.2 hPa | 0 mm | - | 160 W/m² | - |
| 1778003318 | 14.44° C | 84% | 1017.3 hPa | 0 mm | - | 172 W/m² | - |
| 1778003015 | 13.89° C | 86% | 1017.3 hPa | 0 mm | - | 165 W/m² | - |
| 1778002711 | 13.89° C | 85% | 1017.4 hPa | 0 mm | - | 152 W/m² | - |
| 1778002407 | 13.89° C | 86% | 1017.3 hPa | 0 mm | - | 145 W/m² | - |
| 1778002105 | 13.33° C | 87% | 1017.3 hPa | 0 mm | - | 155 W/m² | - |
| 1778001803 | 13.33° C | 88% | 1017.2 hPa | 0 mm | - | 167 W/m² | - |
| 1778001502 | 13.89° C | 87% | 1017.4 hPa | 0 mm | - | 171 W/m² | - |
| 1778001199 | 13.33° C | 87% | 1017.2 hPa | 0 mm | - | 158 W/m² | - |
| 1778000896 | 13.33° C | 88% | 1017.1 hPa | 0 mm | - | 143 W/m² | - |
| 1778000593 | 13.89° C | 87% | 1017.2 hPa | 0 mm | - | 143 W/m² | - |
| 1778000288 | 13.89° C | 88% | 1017.1 hPa | 0 mm | - | 143 W/m² | - |
| 1777999984 | 13.89° C | 86% | 1017.1 hPa | 0 mm | - | 140 W/m² | - |
| 1777999679 | 13.89° C | 85% | 1017.1 hPa | 0 mm | - | 134 W/m² | - |
| 1777999377 | 13.89° C | 85% | 1016.9 hPa | 0 mm | - | 141 W/m² | - |
| 1777999075 | 13.89° C | 85% | 1017 hPa | 0 mm | - | 130 W/m² | - |
| 1777998773 | 13.33° C | 87% | 1017 hPa | 0 mm | - | 113 W/m² | - |
| 1777998471 | 12.78° C | 88% | 1016.8 hPa | 0 mm | - | 107 W/m² | - |
| 1777998167 | 13.33° C | 88% | 1016.7 hPa | 0 mm | - | 105 W/m² | - |
| 1777997864 | 12.78° C | 88% | 1017 hPa | 0 mm | - | 100 W/m² | - |
| 1777997562 | 12.78° C | 88% | 1016.7 hPa | 0 mm | - | 110 W/m² | - |
| 1777997259 | 12.78° C | 90% | 1016.8 hPa | 0 mm | - | 117 W/m² | - |
* Rain latest hour (hover to see other rain measurements)
** Current wind speed in m/s (hover to see current wind gust speed)